TIANWANG 1A (TW-1A)
1 40928U 15051D   19276.76644499  .00003617  00000-0  88687-4 0  9997
2 40928  97.1374 305.6856 0012248  50.0514  39.4412 15.41280789225660
LAPAN A2
1 40931U 15052B   19276.74250103  .00000763  00000-0  17189-4 0  9993
2 40931   5.9999  13.3100 0012620 235.5951 124.3004 14.76616124217113
LQSAT
1 40958U 15057A   19276.75075852 +.00000007 +00000-0 +87784-5 0  9994
2 40958 097.8888 343.0012 0016809 256.6035 103.3299 14.73090461214571
CHUBUSAT 2
1 41338U 16012B   19276.88314486 +.00000370 +00000-0 +22135-4 0  9993
2 41338 031.0025 183.5397 0013659 085.3179 274.9016 15.00187093199029
CHUBUSAT 3
1 41339U 16012C   19276.90670148 +.00000378 +00000-0 +22611-4 0  9994
2 41339 031.0106 181.3450 0013350 093.0217 267.1951 15.00360012199029
OUFTI-1
1 41458U 16025C   19276.89914530 +.00000772 +00000-0 +43325-4 0  9997
2 41458 098.1004 009.1942 0165718 357.0959 002.9288 15.06056149188707
E-STAR-2
1 41459U 16025D   19276.80867979  .00001526  00000-0  81636-4 0  9998
2 41459  98.1007   8.6994 0166882 358.7102   1.3672 15.05680138188668
AAUSAT 4
1 41460U 16025E   19276.84723364  .00002040  00000-0  10526-3 0  9994
2 41460  98.0955  10.2574 0156522 350.3602   9.4597 15.07657581188817
NUSAT 1
1 41557U 16033B   19276.90270837 +.00001323 +00000-0 +52032-4 0  9991
2 41557 097.4151 003.7759 0012113 280.1368 079.8505 15.27410551186457
BEESAT 4
1 41619U 16040W   19276.85678654 +.00001369 +00000-0 +60531-4 0  9994
2 41619 097.3567 337.0330 0011539 015.5327 344.6261 15.23337075170179
PRATHAM
1 41783U 16059A   19276.70349864 +.00000027 +00000-0 +14455-4 0  9992
2 41783 098.0562 333.8599 0034509 049.2304 311.1884 14.63011581161192
ALSAT 1N
1 41789U 16059G   19276.87411685 +.00000078 +00000-0 +23744-4 0  9994
2 41789 098.0596 336.2575 0028974 038.3250 321.9997 14.64264840161333
NAYIF 1
1 42017U 17008BX  19276.73864047 +.00001546 +00000-0 +63376-4 0  9999
2 42017 097.3931 342.6860 0007276 140.7815 219.3951 15.25755498146243
MAX VALIER SAT
1 42778U 17036P   19276.75344458 +.00000934 +00000-0 +43680-4 0  9991
2 42778 097.3433 332.0042 0011752 200.9667 159.1089 15.22159848126523
